Погода в Починоке

Погода в Починоке : погода сейчас, прогноз погоды и архив. Всё, что Вы хотите узнать о погоде в Починоке!

Поиск расширенной информации на нашем сайте:

Другие новости

Новости СМИ2

Главная страница сайта

Новости сайта

03.07.2017

Напоминаем, что на нашем специализированном сайте Метеоцентр.Азия вы можете получить высокодетализированные автоматические прогнозы погоды по пунктам России, СНГ и мира в авиационном формате (включающие направление и скорость ветра, видимость, явления погоды, количество и форму облачности, нижнюю и верхнюю границу облачности).


Погода в Починоке - сегодня

Время (UTC), дата Ветер
(°,м/с) 
Видим.   Явления Облачность Т
(°С)
Тd
(°С)
f(%) Тe
(°С)
Pmin
(гПа)
dP
(гПа)
Po
(мм)
O2
(г/м3)
Тmin Tmax R s Состояние
почвы
18 18.04.18 280 (З) 2{11}  10 км  в посл. час ливневой дождь  10/8 600 м кучево-дожд., средняя 
[Cb cap|Ac trans]
+7 +5.5 90 +7  1014.9  -0.2  743  291    +10.7  0.5     
21 18.04.18 310 (СЗ) 4000 м  слаб. ливневой дождь  10/8 600 м кучево-дожд., средняя 
[Cb cap|Ac trans]
+7.2 +6 92 +6  1013  -1.9  741  290           
03 19.04.18 320 (СЗ) 5{11}  4000 м  слаб. ливневой дождь  10/8 300 м кучево-дожд., средняя 
[Cb cap|Ac trans]
+6.1 +4.9 92 +4  1011.1  -0.6  740  291  +6.1       
06 19.04.18 230 (ЮЗ) 6{12}  4000 м  слаб. ливневой дождь  10/10 300 м кучево-дожд. 
[Cb cap]
+6.5 +5.1 91 +4  1011  0.1  740  290  +6.1      мокрая 
21 19.04.18 330 (СЗ) 20000 м    ясно 
+8 +1.4 63 +7  1016.4  0.9  744  291           
00 20.04.18 330 (СЗ) 20000 м    ясно 
+6.6 +1.5 70 +5  1017.2  0.7  744  293           
06 20.04.18 350 (С) 20000 м    3/0 верхняя 
[Ci fib]
+9.8 +2 58 +9  1019.5  1.2  746  290  +5.3        мокрая 
09 20.04.18 350 (С) 20000 м    8/5 1000 м средняя, верхняя 
[Cu med, cong|Ac trans|Ci fib]
+14.2 -1.6 34 +14  1019.3  0.2  746  286           
12 20.04.18 340 (С) 20000 м    8/6 1000 м верхняя 
[Cu hum|Ci fib]
+15.2 -0.8 33 +15  1018.5  -0.7  746  285           
15 20.04.18 320 (СЗ) 20000 м    8/0 верхняя 
[Ci fib]
+16 -0.4 33 +16  1016.8  -1.6  745  283           
21 20.04.18 270 (З) 20000 м    4/0 верхняя 
[Ci fib]
+8.7 +1.7 61 +9  1015  -1.7  743  290           
00 21.04.18 230 (ЮЗ) 20000 м    4/0 верхняя 
[Ci fib]
+6.1 +2.2 76 +6  1012.8  -2.3  741  292           
06 21.04.18 230 (ЮЗ) 20000 м    3/0 верхняя 
[Cc]
+13.5 +5.2 57 +13  1005.1  -4.2  736  282  +5.7        влажная 
18 21.04.18 320 (СЗ) 7-12{20}  20000 м  {гроза, ливн. осадки}  3/3 600 м кучево-дожд. 
[Cb cap]
+10.5 -0.4 47 +9  1001.6  5.2  733  284    +21.9     
21 21.04.18 300 (СЗ) 3{15}  20000 м    6/0 средняя, верхняя 
[Ac trans|Ci fib]
+8.1 +1.5 63 +7  1003.5  1.6  734  287           
06 22.04.18 300 (СЗ) 4{10}  20000 м    9/8 600 м кучево-дожд., средняя 
[Cb cap|Ac trans]
+7.4 +1.2 65 +6  1004.6  0.5  735  288  +5.3    0.0    влажная 
18 22.04.18 340 (С) 2{11}  20000 м  {ливн. осадки}  8/8 600 м кучево-дожд. 
[Cb cap]
+5.3 +2.9 84 +5  1010.5  2.6  739  292    +11.2  0.0     
21 22.04.18 020 (С) 20000 м    3/0 средняя 
[Ac trans]
+3.7 -3.2 61 +2  1012.7  741  295           
00 23.04.18 340 (С) 20000 м    5/5 600 м 
[Sc]
+0.3 -3.2 77 -1  1014.8  1.7  742  299           
06 23.04.18 010 (С) 20000 м    3/3 1000 м верхняя 
[Cu med, cong|Ci fib]
+3.5 -7.1 46 +2  1017.6  1.6  744  297  -0.3        мокрая 
09 23.04.18 010 (С) 20000 м    3/0 верхняя 
[Ci fib]
+6.2 -8.8 33 +5  1017.1  -0.3  744  294           
12 23.04.18 290 (З) 20000 м    6/0 верхняя 
[Ci fib]
+9.4 -7.7 29 +9  1016  -0.8  744  290           
15 23.04.18 280 (З) 20000 м    4/0 верхняя 
[Ci fib]
+9.4 -8.3 28 +9  1015.7  -0.3  743  290           
21 23.04.18 тихо ()   20000 м    3/0 верхняя 
[Ci fib]
-0.4 -5 71 -0  1015.5  -0.3  743  300           
00 24.04.18 тихо ()   20000 м    4/0 верхняя 
[Ci fib]
-1.7 -4 84 -2  1015.5  0.1  742  301           
Время (UTC), дата Ветер
(°,м/с) 
Видим.   Явления Облачность Т
(°С)
Тd
(°С)
f(%) Тe
(°С)
Pmin
(гПа)
dP
(гПа)
Po
(мм)
O2
(г/м3)
Тmin Tmax R s Состояние
почвы

Для получения пояснительной информации подведите курсор к названию столбца.

ПОГОДА в Починоке - архив

Всё, что Вы хотите узнать о погоде в Починоке - удобно и подробно!

Выберите нужную дату (начиная с 1 января 2015* года) и нажмите кнопку "Найти".
Будут отображены архивные сводки погоды по пункту Починок, начиная с указанной даты.


Отображать данные в формате CSV (для использования в таблицах Excel)


Внимание! Наш архив погоды предназначен исключительно для личного некоммерческого использования в познавательных целях. Если Вам необходимы официальные справки о состоянии погоды (для производственных, юридических, коммерческих и т.п. целей), обращайтесь в органы Росгидромета.

*Примечание: данная дата относится к архиву по метеостанциям СССР (Россия, СНГ, Балтия).
Архив по метеостанциям Зарубежной Европы и Азии (кроме Китая) хранится 10 дней, по другим регионам земного шара (Китай, Африка, Америка, Австралия, Океания) - 1 день.

Починок - район местоположения метеостанции


Название, широта, долгота, высота метеостанции:
Починок 54.4°ш. 32.4°д. 210 м над ур. моря [Российская Федерация]

Дополнительная информация

В oтличие oт бoльшинства пoгoдных сайтoв мы публикуем пoдрoбную метеoинфoрмацию в детальнoм прoфессиoнальнoм фoрмате.

Характеристики температуры и влажнoсти вoздуха измеряются на высoте 2 м в тени вдали oт зданий и деревьев.
Скoрoсть ветра измеряется на высoте 10 м (на урoвне рoста челoвека скoрoсть ветра ниже в 1.5-2 раза). Если метеoстанция нахoдится в гoрoде или в лесу, тo скoрoсть ветра занижена на 2-4 м/с пo сравнению с oткрытым местoм. Скoрoсть ветра над акватoриями крупных рек и oзёр, а также на вершинах хoлмoв на 2-5 м/с выше, чем в oбычных услoвиях.
Атмoсфернoе давление в разных тoчках местнoсти мoжет значительнo oтличаться oт давления на метеoстанции, в зависимoсти oт услoвий рельефа (при пoдъёме на 10 м давление пoнижается примернo на 1 мм рт.ст.).